ADVERTISEMENT

iOS app on App Store Android app on Google Play

2014 \ Del Mar Mud Run - October 4, 2014

Notes Pages Download Filter By
  1 2 3 4 5 6 7 8 9 10 11 12 13 14 15 16 17 18 19 20 21 22 23 [24] 25 26 27 28 29 30 31 32 33 34 35 36 37 38 39 40 41 42 43 44 45 46 47 48 49 50 51 52 53 54 55 56 57 58 59 60




Keyword Exact  
Division

Bib Division Last Name First Name Age Sex Division Place Chip Overall
6808 900 Females Conde Elizabeth 33 F 225 00:47:07 2301
6970 200 Males Jain Ankur 28 M 103 00:47:07 2302
3909 730 Females Cese?a Angela 56 F 139 00:47:07 2303
4637 1100 Females Vanarsdall Shelby 29 F 220 00:47:07 2304
586 900 Females Conde Sandra 41 F 226 00:47:07 2305
4422 1100 Females Chizek Raquel 37 F 221 00:47:08 2306
5292 1000 Males Avitia Juan 27 M 152 00:47:08 2307
2443 1000 Females Loeber Claudia 46 F 174 00:47:08 2308
2442 1000 Females Loeber Amy 14 F 175 00:47:09 2309
230 800 Males Robison Donald 37 M 155 00:47:09 2310
5293 1000 Females Pereyra Adriana 22 F 176 00:47:09 2311
1295 800 Males Gray Michael 30 M 156 00:47:09 2312
2908 730 Females Whitcomb Pamela 59 F 140 00:47:10 2313
2289 1000 Males Osuna Rocio 30 M 153 00:47:10 2314
2905 730 Males Mastin Jeff 52 M 105 00:47:10 2315
231 800 Females Salzwedel Susan 46 F 145 00:47:10 2316
2907 730 Males Morrison Woody 47 M 106 00:47:10 2317
1438 1200 Females Gonzalez Maricela 48 F 98 00:47:11 2318
4635 1100 Females Estep Jayme 28 F 222 00:47:11 2319
2679 1000 Females Sisk Lisa 50 F 177 00:47:11 2320
2909 730 Males Whitcomb Timothy 59 M 107 00:47:11 2321
2901 730 Males Creagan Will 51 M 108 00:47:11 2322
1055 800 Females Morris Brandi 30 F 146 00:47:11 2323
7437 800 Males Miller Aaron 32 M 157 00:47:11 2324
4636 1100 Females Stemple Sarah 26 F 223 00:47:12 2325
2910 730 Females Zack Laura 50 F 141 00:47:12 2326
98 1200 Males Cavender Alec 18 M 102 00:47:12 2327
222 800 Females Hojo Monica 32 F 147 00:47:12 2328
6956 200 Males Morales Fraisher 23 M 104 00:47:12 2329
4425 1100 Females Georger Kristen 33 F 224 00:47:12 2330
2904 730 Females Kiralla Tracy 52 F 142 00:47:12 2331
1437 1200 Females Ward Maricela 46 F 99 00:47:12 2332
3457 900 Males Scott Travis 45 M 175 00:47:13 2333
4598 900 Females Emerson Michelle 43 F 227 00:47:13 2334
3938 1100 Females Tsai Peijean 33 F 225 00:47:13 2335
2906 730 Females Meredith Sharon 51 F 143 00:47:14 2336
4601 900 Females Nuezca Melissa 39 F 228 00:47:14 2337
3454 900 Males Cartwright Jeff 52 M 176 00:47:14 2338
3456 900 Females Scott Kathy 46 F 229 00:47:14 2339
2535 1200 Females Rhodes Trina 26 F 100 00:47:15 2340
40 800 Males Manke Thomas 40 M 158 00:47:16 2341
1054 800 Females Goddard Elisa 33 F 148 00:47:16 2342
3453 900 Females Cartwright Caroline 53 F 230 00:47:16 2343
4541 1100 Females Norfolk Somsi 43 F 226 00:47:16 2344
989 800 Males Salinas Walter 42 M 159 00:47:16 2345
2536 1200 Females Ross Jennifer 47 F 101 00:47:16 2346
6971 200 Males Joshi Harshit 29 M 105 00:47:16 2347
1672 900 Males Lerma Santiago 37 M 177 00:47:16 2348
3451 900 Females Becorest Anggie 50 F 231 00:47:16 2349
101 1200 Females Riach Wendy 62 F 102 00:47:17 2350
2451 1200 Males Schwartzman Daniel Henry 30 M 103 00:47:17 2351
1058 800 Females Richardmann Corey 33 F 149 00:47:18 2352
579 1000 Males Reed Gary 52 M 154 00:47:18 2353
4712 1100 Females Sweany Genesis 16 F 227 00:47:18 2354
1675 900 Males Swartz Kevin 34 M 178 00:47:18 2355
593 1000 Females Pagano Amy 41 F 178 00:47:18 2356
1673 900 Males Stopper Scott 38 M 179 00:47:19 2357
2681 1000 Females Aguirre Natalia 27 F 179 00:47:19 2358
1674 900 Males Swartz Christopher 37 M 180 00:47:19 2359
6557 100 Females Mcbeth Christine 28 F 129 00:47:19 2360
1275 800 Females Elledge Jessica 37 F 150 00:47:19 2361
3911 730 Females Gonzales Brooke 39 F 144 00:47:19 2362
3912 730 Males Gonzales Jose 46 M 109 00:47:19 2363
2733 900 Females Herrera Adriana 21 F 232 00:47:19 2364
39 800 Females Lazo Mae 35 F 151 00:47:20 2365
2683 1000 Males Burns Jeff 28 M 155 00:47:20 2366
7139 100 Females Boubion Sasha 25 F 130 00:47:20 2367
2902 730 Females Irish Kelley 46 F 145 00:47:21 2368
38 800 Males Cline Christopher 40 M 160 00:47:21 2369
5553 1000 Males Barb Kevin 28 M 156 00:47:22 2370
2655 1000 Females Carreon Diana 21 F 180 00:47:22 2371
2685 1000 Females Valles Jena 28 F 181 00:47:22 2372
1278 800 Males Foster Cameron 33 M 161 00:47:23 2373
2035 800 Females Molina Maria 29 F 152 00:47:23 2374
3626 200 Females Gatchalian Cinthya 27 F 101 00:47:23 2375
4216 1100 Females Rivas Reina 29 F 228 00:47:23 2376
1056 800 Females Ponce Savannah 30 F 153 00:47:24 2377
1504 1200 Females Baldwin Anne 45 F 103 00:47:24 2378
4476 1100 Females Ambrocio Ariane 24 F 229 00:47:24 2379
2190 200 Females Randolph Alonna 25 F 102 00:47:25 2380
6372 1100 Females Smith Danielle 14 F 230 00:47:25 2381
1328 800 Males Mccarty Sean 34 M 162 00:47:25 2382
2441 1000 Females Swick Lesley 36 F 182 00:47:25 2383
3625 200 Females Barba Tina 26 F 103 00:47:26 2384
898 1100 Females Tran Ha 30 F 231 00:47:26 2385
2440 1000 Females Metcalfe Olivia 23 F 183 00:47:26 2386
897 1100 Females Nong Van 31 F 232 00:47:27 2387
3367 900 Females Faraone Alyse 29 F 233 00:47:28 2388
540 1000 Males Ramirez Jim 48 M 157 00:47:28 2389
4237 1100 Females Cervantes Deysi 31 F 233 00:47:28 2390
1004 1200 Males Eichholz Kevin 30 M 104 00:47:29 2391
1566 800 Females Kincaid Julie 36 F 154 00:47:29 2392
6211 1100 Females Monroe Erika 14 F 234 00:47:30 2393
702 900 Males Moon Bryan 28 M 181 00:47:30 2394
2734 900 Females Leyva Selene 22 F 234 00:47:30 2395
2444 1000 Females Luna Judith 38 F 184 00:47:31 2396
2445 1000 Females Reyes Sarah 14 F 185 00:47:31 2397
1564 800 Females Kavan Carrie 31 F 155 00:47:31 2398
4239 1100 Males Rivera Piedro 38 M 171 00:47:31 2399
5552 1000 Females Baca Nicole 23 F 186 00:47:32 2400